GW1938 Weather Reports


time (UTC)temp
F
wind
direction
speed
knots
gust
knots
rain 1hr
in
rain 24hr
in
rain mn
in
humidity
%
barometer
mb
20260905061314 84 331 13.0 18.2 0.00 0.00 0.00 29 1006.5
20260905060812 85 327 15.6 24.3 0.00 0.00 0.00 26 1006.4
20260905060312 85 322 17.4 25.2 0.00 0.00 0.00 27 1006.3
20260905055811 85 316 19.1 24.3 0.00 0.00 0.00 27 1006.3
20260905054806 85 323 18.2 27.8 0.00 0.00 0.00 26 1006.3
20260905054305 85 331 11.3 18.2 0.00 0.00 0.00 28 1006.4
20260905053805 84 323 9.6 16.5 0.00 0.00 0.00 30 1006.5
20260905053303 84 311 6.1 11.3 0.00 0.00 0.00 34 1006.6
20260905052802 84 272 6.1 11.3 0.00 0.00 0.00 30 1006.6
20260905052301 83 235 3.5 7.8 0.00 0.00 0.00 32 1006.6
20260905051800 83 217 3.5 7.8 0.00 0.00 0.00 36 1006.8
20260905051204 83 93 1.7 3.5 0.00 0.00 0.00 36 1006.9
20260905050703 84 341 4.3 15.6 0.00 0.00 0.00 35 1007.0
20260905050201 83 359 3.5 6.1 0.00 0.00 0.00 37 1007.1
20260905045700 83 22 3.5 7.8 0.00 0.00 0.00 38 1007.0
20260905045159 82 24 2.6 6.1 0.00 0.00 0.00 41 1007.2
20260905044658 80 37 4.3 7.0 0.00 0.00 0.00 42 1007.1
20260905044157 83 8 3.5 7.0 0.00 0.00 0.00 36 1007.2
20260905043633 82 31 3.5 7.0 0.00 0.00 0.00 40 1007.2
20260905043132 82 10 3.5 7.0 0.00 0.00 0.00 40 1007.3
20260905042631 80 11 2.6 6.1 0.00 0.00 0.00 40 1007.4
20260905034739 81 28 3.5 6.1 0.00 0.00 0.00 44 1007.8
20260905034238 82 19 3.5 6.1 0.00 0.00 0.00 42 1007.9
20260905033734 80 31 3.5 5.2 0.00 0.00 0.00 43 1008.1
20260905033233 79 50 6.1 9.6 0.00 0.00 0.00 45 1008.1
20260905032730 80 46 5.2 9.6 0.00 0.00 0.00 44 1008.2
20260905032227 79 51 7.0 9.6 0.00 0.00 0.00 44 1008.3
20260905031723 77 55 9.6 11.3 0.00 0.00 0.00 48 1008.4
20260905031220 78 68 7.8 9.6 0.00 0.00 0.00 45 1008.5
20260905030718 77 73 7.8 9.6 0.00 0.00 0.00 47 1008.7
20260905030215 76 70 7.8 10.4 0.00 0.00 0.00 49 1008.8
20260905025712 77 72 7.8 10.4 0.00 0.00 0.00 47 1008.9
20260905025211 77 64 8.7 12.2 0.00 0.00 0.00 47 1009.1
20260905024205 76 68 8.7 11.3 0.00 0.00 0.00 48 1009.4
20260905023704 76 65 9.6 12.2 0.00 0.00 0.00 48 1009.6
20260905022658 77 56 10.4 13.0 0.00 0.00 0.00 45 1009.9
20260905022155 77 57 9.6 13.0 0.00 0.00 0.00 45 1010.1
20260905021651 76 54 9.6 12.2 0.00 0.00 0.00 45 1010.2
20260905021150 76 52 9.6 12.2 0.00 0.00 0.00 45 1010.5
20260905020646 76 52 8.7 12.2 0.00 0.00 0.00 46 1010.6
20260905020145 75 54 9.6 13.0 0.00 0.00 0.00 47 1010.7
20260905015138 75 54 8.7 11.3 0.00 0.00 0.00 47 1011.0
20260905014637 75 53 8.7 10.4 0.00 0.00 0.00 48 1011.2
20260905014135 75 51 7.0 10.4 0.00 0.00 0.00 48 1011.5
20260905013633 74 50 6.1 8.7 0.00 0.00 0.00 50 1011.7
20260905012626 71 76 5.2 7.0 0.00 0.00 0.00 59 1012.0
20260905012124 72 70 6.1 8.7 0.00 0.00 0.00 61 1012.1
20260905011622 70 73 7.0 7.8 0.00 0.00 0.00 66 1012.2
20260905011121 71 69 5.2 7.0 0.00 0.00 0.00 63 1012.4
20260905010618 71 81 6.1 7.0 0.00 0.00 0.00 61 1012.6
20260905010116 74 94 3.5 7.0 0.00 0.00 0.00 56 1012.8
20260905005111 74 99 3.5 6.1 0.00 0.00 0.00 56 1013.1
20260905004610 74 95 4.3 7.0 0.00 0.00 0.00 56 1013.2
20260905002600 72 88 4.3 5.2 0.00 0.00 0.00 52 1013.6
20260905001555 72 89 3.5 5.2 0.00 0.00 0.00 60 1013.7
20260905001053 71 81 4.3 5.2 0.00 0.00 0.00 60 1013.8
20260905000552 70 83 3.5 4.3 0.00 0.00 0.00 57 1013.9
20260904235546 69 50 3.5 4.3 0.00 0.00 0.00 62 1014.0
20260904235045 68 53 2.6 3.5 0.00 0.00 0.00 60 1014.0
20260904234542 69 51 2.6 5.2 0.00 0.00 0.00 61 1014.2
20260904234040 71 33 1.7 3.5 0.00 0.00 0.00 58 1014.3
20260904233537 71 341 1.7 2.6 0.00 0.00 0.00 59 1014.4
20260904233035 71 337 1.7 2.6 0.00 0.00 0.00 51 1014.4
20260904232534 72 330 1.7 2.6 0.00 0.00 0.00 46 1014.5
20260904232031 73 330 2.6 3.5 0.00 0.00 0.00 48 1014.6
20260904231530 72 320 1.7 2.6 0.00 0.00 0.00 47 1014.7
20260904231029 71 321 1.7 3.5 0.00 0.00 0.00 48 1014.7
20260904230025 70 325 3.5 4.3 0.00 0.00 0.00 56 1014.8
20260904225020 69 325 3.5 6.1 0.00 0.00 0.00 54 1015.0
20260904224519 71 336 4.3 5.2 0.00 0.00 0.00 50 1015.0
20260904224017 71 350 4.3 5.2 0.00 0.00 0.00 52 1015.1
20260904223012 71 345 4.3 5.2 0.00 0.00 0.00 52 1015.0
20260904222510 70 345 3.5 5.2 0.00 0.00 0.00 54 1015.1
20260904222007 69 343 4.3 5.2 0.00 0.00 0.00 56 1015.0
20260904221506 67 344 3.5 5.2 0.00 0.00 0.00 58 1015.1
20260904221004 66 342 4.3 6.1 0.00 0.00 0.00 59 1015.1
20260904220500 65 342 4.3 6.1 0.00 0.00 0.00 61 1015.1
20260904215958 65 346 4.3 7.0 0.00 0.00 0.00 60 1015.2
20260904215455 65 344 4.3 5.2 0.00 0.00 0.00 60 1015.3
20260904214953 65 342 4.3 5.2 0.00 0.00 0.00 59 1015.3
20260904214452 65 336 4.3 6.1 0.00 0.00 0.00 59 1015.2
20260904213949 65 329 5.2 8.7 0.00 0.00 0.00 60 1015.3
20260904213447 64 321 7.0 9.6 0.00 0.00 0.00 60 1015.2
20260904212946 64 316 7.0 9.6 0.00 0.00 0.00 62 1015.2
20260904212444 64 314 6.1 7.8 0.00 0.00 0.00 64 1015.1
20260904211940 64 322 5.2 7.8 0.00 0.00 0.00 64 1015.2
20260904211438 63 329 5.2 7.0 0.00 0.00 0.00 66 1015.2
20260904210936 62 332 6.1 7.8 0.00 0.00 0.00 68 1015.2
20260904210434 62 330 7.0 10.4 0.00 0.00 0.00 69 1015.0
20260904205933 61 333 7.8 10.4 0.00 0.00 0.00 69 1015.0
20260904204929 60 333 7.0 7.8 0.00 0.00 0.00 75 1014.9
20260904203931 59 332 6.1 8.7 0.00 0.00 0.00 77 1015.0
20260904203420 59 333 6.1 7.8 0.00 0.00 0.00 77 1015.0
20260904202919 59 334 6.1 9.6 0.00 0.00 0.00 79 1015.0
20260904202414 59 337 6.1 8.7 0.00 0.00 0.00 80 1015.1
20260904201912 58 335 5.2 7.0 0.00 0.00 0.00 80 1015.2
20260904201410 58 335 5.2 7.0 0.00 0.00 0.00 80 1015.1
20260904200909 58 334 5.2 6.1 0.00 0.00 0.00 80 1015.1
20260904195903 58 324 7.0 10.4 0.00 0.00 0.00 80 1015.2
20260904195402 58 315 7.8 11.3 0.00 0.00 0.00 81 1015.2
20260904194901 58 322 6.1 8.7 0.00 0.00 0.00 83 1015.2
20260904193857 57 334 4.3 5.2 0.00 0.00 0.00 84 1015.1
20260904193356 57 338 3.5 4.3 0.00 0.00 0.00 82 1015.1
20260904192854 58 345 3.5 3.5 0.00 0.00 0.00 82 1015.1
20260904192353 58 343 2.6 3.5 0.00 0.00 0.00 81 1015.0
20260904191851 58 348 2.6 4.3 0.00 0.00 0.00 80 1015.0
20260904191350 58 342 2.6 3.5 0.00 0.00 0.00 82 1015.0
20260904190345 58 343 4.3 6.1 0.00 0.00 0.00 80 1014.9
20260904185844 58 343 4.3 6.1 0.00 0.00 0.00 80 1014.9
20260904185343 58 343 4.3 7.0 0.00 0.00 0.00 79 1014.8
20260904184842 59 341 5.2 6.1 0.00 0.00 0.00 79 1014.7
20260904183837 60 337 6.1 7.0 0.00 0.00 0.00 77 1014.7
20260904183336 60 333 6.1 8.7 0.00 0.00 0.00 75 1014.7
20260904182835 60 335 6.1 8.7 0.00 0.00 0.00 75 1014.7
20260904181831 61 318 7.8 10.4 0.00 0.00 0.00 75 1014.7
20260904181330 61 304 7.8 10.4 0.00 0.00 0.00 74 1014.6
20260904180829 61 306 7.0 9.6 0.00 0.00 0.00 76 1014.7
20260904180327 60 304 6.1 8.7 0.00 0.00 0.00 75 1014.6
20260904175322 61 312 7.8 9.6 0.00 0.00 0.00 70 1014.8
20260904174821 60 323 7.0 10.4 0.00 0.00 0.00 71 1014.8
20260904173815 60 320 5.2 7.0 0.00 0.00 0.00 72 1015.0
20260904172811 60 319 6.1 8.7 0.00 0.00 0.00 68 1015.1
20260904172309 60 310 7.0 8.7 0.00 0.00 0.00 73 1015.1
20260904171305 60 282 4.3 5.2 0.00 0.00 0.00 72 1015.2
20260904170803 60 282 3.5 4.3 0.00 0.00 0.00 70 1015.3
20260904165758 61 305 6.1 7.8 0.00 0.00 0.00 68 1015.3
20260904165257 61 305 7.0 8.7 0.00 0.00 0.00 66 1015.3
20260904164253 60 295 6.1 8.7 0.00 0.00 0.00 70 1015.6
20260904163249 60 325 6.1 8.7 0.00 0.00 0.00 73 1015.7
20260904162748 60 330 5.2 7.8 0.00 0.00 0.00 74 1015.8
20260904160233 61 296 5.2 6.1 0.00 0.00 0.00 68 1016.4
20260904155732 61 299 4.3 7.0 0.00 0.00 0.00 69 1016.5
20260904155230 61 292 4.3 5.2 0.00 0.00 0.00 67 1016.4
20260904154729 61 301 4.3 6.1 0.00 0.00 0.00 69 1016.4
20260904154228 61 307 3.5 5.2 0.00 0.00 0.00 74 1016.5
20260904153727 61 328 2.6 4.3 0.00 0.00 0.00 76 1016.5
20260904153226 60 332 2.6 5.2 0.00 0.00 0.00 76 1016.5
20260904152217 61 333 2.6 4.3 0.00 0.00 0.00 72 1016.4
20260904151715 62 316 4.3 6.1 0.00 0.00 0.00 71 1016.5
20260904151214 61 316 4.3 7.0 0.00 0.00 0.00 71 1016.5
20260904150712 61 320 4.3 7.0 0.00 0.00 0.00 72 1016.5
20260904145204 61 306 4.3 7.0 0.00 0.00 0.00 74 1016.6
20260904144703 61 309 4.3 7.0 0.00 0.00 0.00 75 1016.6
20260904144202 61 306 4.3 7.0 0.00 0.00 0.00 74 1016.6
20260904143701 62 307 4.3 6.1 0.00 0.00 0.00 76 1016.7
20260904142656 62 289 6.1 8.7 0.00 0.00 0.00 72 1016.7
20260904142155 62 307 8.7 13.0 0.00 0.00 0.00 68 1016.7
20260904141150 60 281 4.3 7.8 0.00 0.00 0.00 72 1016.7
20260904140649 60 280 4.3 5.2 0.00 0.00 0.00 72 1016.8
20260904140148 61 291 4.3 6.1 0.00 0.00 0.00 71 1016.8
20260904135647 61 303 6.1 8.7 0.00 0.00 0.00 70 1016.9
20260904135145 61 307 6.1 8.7 0.00 0.00 0.00 69 1016.9
20260904134644 61 318 5.2 7.8 0.00 0.00 0.00 71 1017.0
20260904134142 61 316 5.2 7.8 0.00 0.00 0.00 70 1016.9
20260904133641 61 312 4.3 7.0 0.00 0.00 0.00 70 1016.9
20260904132133 61 341 4.3 6.1 0.00 0.00 0.00 70 1017.0
20260904131632 61 349 3.5 5.2 0.00 0.00 0.00 70 1016.9
20260904131131 61 15 1.7 3.5 0.00 0.00 0.00 70 1017.0
20260904130630 61 42 0.9 1.7 0.00 0.00 0.00 72 1016.9
20260904125624 59 329 1.7 3.5 0.00 0.00 0.00 75 1017.0
20260904125124 59 346 2.6 3.5 0.00 0.00 0.00 77 1017.0
20260904124622 59 344 2.6 4.3 0.00 0.00 0.00 75 1017.1
20260904124120 60 332 1.7 3.5 0.00 0.00 0.00 75 1017.1
20260904123619 60 350 2.6 4.3 0.00 0.00 0.00 74 1017.2
20260904123118 60 355 2.6 4.3 0.00 0.00 0.00 74 1017.2
20260904122616 60 1 3.5 4.3 0.00 0.00 0.00 73 1017.2
20260904122115 60 6 3.5 3.5 0.00 0.00 0.00 71 1017.3
20260904121613 61 9 3.5 4.3 0.00 0.00 0.00 70 1017.3
20260904120608 60 360 3.5 5.2 0.00 0.00 0.00 70 1017.4
20260904120107 61 352 3.5 5.2 0.00 0.00 0.00 70 1017.4
20260904115605 61 353 3.5 6.1 0.00 0.00 0.00 69 1017.4
20260904115105 61 354 3.5 5.2 0.00 0.00 0.00 69 1017.5
20260904114604 61 5 3.5 5.2 0.00 0.00 0.00 69 1017.4
20260904113056 61 13 2.6 4.3 0.00 0.00 0.00 71 1017.5
20260904112555 60 7 3.5 5.2 0.00 0.00 0.00 71 1017.5
20260904111046 61 7 5.2 6.1 0.00 0.00 0.00 70 1017.3
20260904110545 61 9 4.3 9.6 0.00 0.00 0.00 68 1017.3
20260904110043 62 8 5.2 9.6 0.00 0.00 0.00 68 1017.3
20260904105542 62 11 5.2 7.0 0.00 0.00 0.00 67 1017.3
20260904105040 62 24 5.2 7.8 0.00 0.00 0.00 66 1017.2
20260904104539 62 43 5.2 7.0 0.00 0.00 0.00 66 1017.0
20260904104038 62 48 4.3 7.0 0.00 0.00 0.00 65 1017.1
20260904103537 62 38 4.3 7.0 0.00 0.00 0.00 65 1017.1
20260904103036 62 44 3.5 5.2 0.00 0.00 0.00 65 1017.0
20260904102535 61 14 3.5 6.1 0.00 0.00 0.00 67 1016.9
20260904102034 61 18 2.6 5.2 0.00 0.00 0.00 68 1016.9
20260904101533 61 16 3.5 6.1 0.00 0.00 0.00 68 1016.9
20260904100528 62 16 4.3 7.0 0.00 0.00 0.00 67 1016.8
20260904095523 62 15 5.2 7.8 0.00 0.00 0.00 67 1016.7
20260904095022 62 9 5.2 8.7 0.00 0.00 0.00 70 1016.7
20260904094520 63 18 5.2 7.0 0.00 0.00 0.00 72 1016.7
20260904094018 63 24 5.2 7.8 0.00 0.00 0.00 71 1016.7
20260904093517 63 23 5.2 8.7 0.00 0.00 0.00 71 1016.7
20260904093015 63 23 5.2 8.7 0.00 0.00 0.00 70 1016.7
20260904092514 63 28 5.2 7.8 0.00 0.00 0.00 70 1016.6
20260904092013 63 30 5.2 8.7 0.00 0.00 0.00 71 1016.5
20260904091512 63 21 5.2 8.7 0.00 0.00 0.00 72 1016.6
20260904091011 63 28 4.3 7.8 0.00 0.00 0.00 72 1016.5
20260904090510 63 36 4.3 7.8 0.00 0.00 0.00 71 1016.5
20260904085001 63 42 6.1 10.4 0.00 0.00 0.00 70 1016.2
20260904083941 64 42 6.1 11.3 0.00 0.00 0.00 69 1016.2
20260904082937 64 43 7.0 9.6 0.00 0.00 0.00 67 1016.1
20260904082436 64 38 6.1 9.6 0.00 0.00 0.00 66 1016.0
20260904081935 64 36 6.1 8.7 0.00 0.00 0.00 67 1016.0
20260904081434 64 35 5.2 7.0 0.00 0.00 0.00 66 1016.1
20260904080932 64 34 5.2 8.7 0.00 0.00 0.00 67 1016.0
20260904080431 64 34 6.1 10.4 0.00 0.00 0.00 68 1015.9
20260904075425 64 45 7.8 11.3 0.00 0.00 0.00 70 1016.0
20260904074421 64 44 7.8 11.3 0.00 0.00 0.00 69 1015.9
20260904073920 64 47 7.8 12.2 0.00 0.00 0.00 69 1015.8
20260904072916 64 52 8.7 13.0 0.00 0.00 0.00 67 1015.6
20260904072415 64 49 8.7 14.8 0.00 0.00 0.00 66 1015.6
20260904071410 64 54 9.6 13.0 0.00 0.00 0.00 66 1015.8
20260904070909 64 52 8.7 13.0 0.00 0.00 0.00 64 1015.6
20260904070355 64 63 10.4 13.0 0.00 0.00 0.00 64 1015.7
20260904065854 64 61 10.4 13.0 0.00 0.00 0.00 62 1015.7
20260904065353 64 59 10.4 13.0 0.00 0.00 0.00 62 1015.8
20260904064852 65 52 8.7 12.2 0.00 0.00 0.00 61 1015.8
20260904064350 65 58 9.6 13.9 0.00 0.00 0.00 61 1015.7
20260904063346 65 71 10.4 13.9 0.00 0.00 0.00 61 1015.8
20260904062845 65 63 9.6 13.0 0.00 0.00 0.00 60 1015.8
20260904062344 65 63 10.4 13.0 0.00 0.00 0.00 59 1015.8